Location: Lombard
(41.8800°N, 88.0080°W)
Time: 12:55:35
(UTC-06:00)

Transit 4A - Pass Details

Date: 01 December 2023
Orbit: 870 x 973 km, 66.8° (Epoch: 03 March)

Event Time Altitude Azimuth Distance (km) Brightness Sun altitude
Rises 06:44:32 0° 321° (NW) 3,585 - -3.4°
Exits shadow 06:44:50 - 320° (NW) 3,482 10.3 -3.3°
Reaches altitude 10° 06:47:20 10° 312° (NW) 2,620 9.6 -2.9°
Maximum altitude 06:52:36 32° 251° (WSW) 1,509 8.7 -2.0°
Drops below altitude 10° 06:57:44 10° 191° (S) 2,546 10.5 -1.2°
Sets 07:00:26 0° 181° (S) 3,468 11.3 -0.8°
